Showing default

CS1, 49261

Orbit data source: Space-Track

CS1, 49261 is a payload satellite owned by Cesium (US) in SSO that was launched on Mon, 27 Sep 2021 UTC via an ATLAS V 401 launch vehicle from the Air Force Western Test Range (AFWTR). Payload-class satellites include a variety of spacecraft equipped with specific instruments for various scientific and technological missions. These include communications satellites like Starlink; space stations such as the ISS; scientific satellites like the Hubble; Earth observation satellites from companies like Planet Labs, Umbra, and HawkEye 360; GPS; miniature CubeSats for education and research; and military/defense satellites.

Loading next visibility...
Identifier
49261, 2021-088B
Orbit
SSO
Country
Flag of USUS
Related business
Manufacturer
Cesium
Mission
Operational Commercial Technology
Bus & Motor
CUBESAT 6U, Unknown motor
Mass
~10 kg wet, 10 kg dry
Launch date (UTC)
2021-09-27 (4 years ago)
Launch vehicle
ATLAS V 401
Launch site
Air Force Western Test Range (AFWTR)
Object type
Payload
Rocket body
Debris
Shape & HBR
Box + 3 Pan, 0.5 m
Radar Cross Section
0.150 m², Medium (>0.1 m² and < 1m²)

Expand to show TLE details & history
Last TLE update: 20 hours ago

TLE from 20 hours ago
0 CS1
1 49261U 21088B   25348.15881597  .00015087  00000-0  53823-3 0  9992
2 49261  97.4056  46.9074 0014218  24.6498 335.5418 15.28883960232099
Epoch: 2025-12-14T03:48Z
TLE epoch observation values (Epoch: 2025-12-14T03:48:41.699Z)
Latitude
-0.0001°
Longitude
-93.34208°
Altitude
473.375 km
Speed
7.634 km/s
True Right ascension
03h 07m 37s
True Declination
0° 00' 00"
Sunlit
Object was in full shadow at epoch
Visualization orbit readout
Latitude
Unknown
Longitude
Unknown
Altitude
Unknown
Speed
Unknown
Apparent Right ascension
Unknown
Apparent Declination
Unknown
Sunlit
N/A
Visualization observer readout
Local Sidereal Time
22:40:53
Azimuth
Unknown
Elevation
Unknown
Doppler factor
Unknown
Orbital elements
Apogee altitude
485.847 km
Perigee altitude
466.356 km
Semi-major axis
6,854.238 km
Eccentricity
0.00142
Inclination
97.4056°
RAAN
46.9074°
Arg. of periapsis
24.6498°
True anomaly
335.47423°
Mean anomaly
335.5418°
Eccentric anomaly
335.50803°
Mean motion
3.82476 °/min
Orbital period
94.12 mins
BSTAR
0.00053823
Loading maneuver chart data...
Computing Atmospheric mass density...
Loading historical data...
Loading historical data...
Loading historical data...
Loading historical data...
Loading historical data...
Loading historical data...
Loading historical data...
Other satellites on launch #88 in the year 2021 (2021-09-27 UTC)

Documentation

Showing up to 5 results
|